MOLNIYA 3-27

Last updated on Jan. 25, 2020, 4:43 a.m. UTC

1 16393U 85117A   20024.46240796  .00000157  00000-0  00000-0 0  9993
2 16393  64.6664 179.8442 6493301 259.0475  26.7384  2.12398866255590
UTC
Height (km)
Latitude
Longitude
Inclination
Orbital Period
UTC large
Height (km)
Speed (km/s)
/
Latitude / Longitude
Inclination (degrees)
Orbital Period (minutes)
Azimuth
Elevation
Range (km)
Doppler Factor
iOS Compass Heading
iOS Angle

Next 30 passes for location: Hong Kong

Rise time Rise Azimuth (degrees) Set time Set Azimuth (degrees) Duration Max altitude (degrees)

No matching passes for this satellites